TimeCDT,TemperatureF,Dew PointF,Humidity,Sea Level PressureIn,VisibilityMPH,Wind Direction,Wind SpeedMPH,Gust SpeedMPH,PrecipitationIn,Events,Conditions,WindDirDegrees,DateUTC
12:15 AM,61.9,54.9,78,29.92,10.0,Calm,Calm,-,N/A,,Overcast,0,2013-08-02 05:15:00
1:15 AM,61.7,54.7,78,29.90,10.0,SE,4.6,-,N/A,,Overcast,140,2013-08-02 06:15:00
1:35 AM,61.3,56.5,84,29.91,10.0,NNW,5.8,-,0.01,Rain,Light Rain,330,2013-08-02 06:35:00
1:55 AM,64.4,53.2,67,29.90,10.0,South,3.5,-,0.01,,Overcast,180,2013-08-02 06:55:00
2:15 AM,63.5,54.9,73,29.89,10.0,South,5.8,-,N/A,,Overcast,170,2013-08-02 07:15:00
2:35 AM,63.0,54.7,74,29.88,10.0,SSE,5.8,-,N/A,,Mostly Cloudy,150,2013-08-02 07:35:00
2:55 AM,62.4,55.2,77,29.87,10.0,SSE,5.8,-,N/A,,Scattered Clouds,150,2013-08-02 07:55:00
3:15 AM,63.0,55.8,77,29.87,10.0,SSE,8.1,-,N/A,Rain-Thunderstorm,Rain,160,2013-08-02 08:15:00
3:35 AM,62.1,58.3,87,29.87,10.0,South,3.5,-,N/A,Thunderstorm,Overcast,170,2013-08-02 08:35:00
3:55 AM,61.3,57.9,89,29.89,10.0,East,3.5,-,N/A,,Overcast,100,2013-08-02 08:55:00
4:15 AM,61.0,58.6,92,29.89,10.0,ESE,3.5,-,N/A,Rain,Rain,110,2013-08-02 09:15:00
4:35 AM,60.8,59.9,97,29.87,1.8,ESE,4.6,-,0.10,Rain,Rain,110,2013-08-02 09:35:00
4:55 AM,60.3,59.9,99,29.87,7.0,SE,5.8,-,0.10,,Scattered Clouds,130,2013-08-02 09:55:00
5:15 AM,60.3,59.9,99,29.87,10.0,SE,6.9,-,N/A,,Scattered Clouds,140,2013-08-02 10:15:00
5:35 AM,59.9,59.4,98,29.86,10.0,SE,5.8,-,N/A,,Clear,130,2013-08-02 10:35:00
5:55 AM,59.2,59.0,99,29.86,10.0,ESE,3.5,-,N/A,,Clear,110,2013-08-02 10:55:00
6:15 AM,59.4,59.0,99,29.87,10.0,Calm,Calm,-,N/A,,Scattered Clouds,0,2013-08-02 11:15:00
6:35 AM,60.1,59.9,99,29.86,10.0,East,3.5,-,N/A,,Scattered Clouds,90,2013-08-02 11:35:00
6:55 AM,61.2,60.6,98,29.86,10.0,SE,3.5,-,N/A,,Scattered Clouds,140,2013-08-02 11:55:00
7:15 AM,62.4,60.8,94,29.87,10.0,South,4.6,-,N/A,,Scattered Clouds,190,2013-08-02 12:15:00
7:35 AM,63.5,61.3,93,29.88,10.0,SSW,9.2,-,N/A,,Clear,200,2013-08-02 12:35:00
7:55 AM,64.4,61.7,91,29.88,10.0,SW,8.1,-,N/A,,Scattered Clouds,220,2013-08-02 12:55:00
8:15 AM,65.3,62.6,91,29.88,10.0,WSW,8.1,-,N/A,,Scattered Clouds,240,2013-08-02 13:15:00
8:35 AM,66.0,62.2,88,29.87,10.0,West,8.1,-,N/A,,Scattered Clouds,260,2013-08-02 13:35:00
8:55 AM,66.6,62.1,85,29.87,10.0,West,5.8,-,N/A,,Scattered Clouds,270,2013-08-02 13:55:00
9:15 AM,68.2,62.2,81,29.87,10.0,West,6.9,-,N/A,,Scattered Clouds,280,2013-08-02 14:15:00
9:35 AM,68.2,62.4,82,29.87,10.0,West,3.5,-,N/A,,Mostly Cloudy,280,2013-08-02 14:35:00
9:55 AM,69.8,62.8,78,29.87,10.0,WNW,3.5,-,N/A,,Overcast,300,2013-08-02 14:55:00
10:15 AM,69.8,62.6,78,29.87,10.0,WNW,5.8,-,N/A,,Overcast,290,2013-08-02 15:15:00
10:35 AM,72.3,62.6,71,29.87,10.0,NNW,4.6,-,N/A,,Mostly Cloudy,330,2013-08-02 15:35:00
10:55 AM,72.7,62.2,70,29.88,10.0,WSW,5.8,-,N/A,,Mostly Cloudy,250,2013-08-02 15:55:00
11:15 AM,73.2,62.4,69,29.88,10.0,WSW,6.9,-,N/A,,Overcast,250,2013-08-02 16:15:00
11:35 AM,74.5,57.4,55,29.88,10.0,West,6.9,-,N/A,,Scattered Clouds,280,2013-08-02 16:35:00
11:55 AM,75.2,57.7,54,29.88,10.0,West,6.9,-,N/A,,Scattered Clouds,270,2013-08-02 16:55:00
12:15 PM,75.9,55.4,49,29.87,10.0,WNW,6.9,-,N/A,,Scattered Clouds,300,2013-08-02 17:15:00
12:35 PM,76.3,51.6,42,29.88,10.0,WNW,5.8,-,N/A,,Scattered Clouds,300,2013-08-02 17:35:00
12:55 PM,76.5,51.8,42,29.88,10.0,WNW,5.8,-,N/A,,Scattered Clouds,300,2013-08-02 17:55:00
1:15 PM,77.4,49.8,38,29.88,10.0,West,5.8,-,N/A,,Scattered Clouds,280,2013-08-02 18:15:00
1:35 PM,78.1,49.5,37,29.88,10.0,West,10.4,-,N/A,,Scattered Clouds,260,2013-08-02 18:35:00
1:55 PM,77.7,50.0,38,29.88,10.0,WNW,6.9,-,N/A,,Scattered Clouds,300,2013-08-02 18:55:00
2:15 PM,78.3,46.8,33,29.88,10.0,West,8.1,19.6,N/A,,Scattered Clouds,280,2013-08-02 19:15:00
2:35 PM,77.9,44.2,30,29.88,10.0,West,9.2,17.3,N/A,,Scattered Clouds,280,2013-08-02 19:35:00
2:55 PM,78.6,48.2,34,29.88,10.0,WNW,9.2,-,N/A,,Clear,290,2013-08-02 19:55:00
3:15 PM,77.5,45.5,32,29.89,10.0,WNW,6.9,16.1,N/A,,Clear,290,2013-08-02 20:15:00
3:35 PM,77.4,46.6,34,29.89,10.0,WNW,6.9,-,N/A,,Clear,300,2013-08-02 20:35:00
3:55 PM,76.8,48.0,36,29.89,10.0,WNW,6.9,-,N/A,,Clear,290,2013-08-02 20:55:00
4:15 PM,77.0,48.0,36,29.89,10.0,WNW,6.9,-,N/A,,Scattered Clouds,290,2013-08-02 21:15:00
4:35 PM,76.6,45.9,34,29.89,10.0,West,5.8,-,N/A,,Scattered Clouds,270,2013-08-02 21:35:00
4:55 PM,76.1,48.7,38,29.89,10.0,WNW,4.6,-,N/A,,Scattered Clouds,290,2013-08-02 21:55:00
5:15 PM,76.1,47.5,36,29.90,10.0,WNW,5.8,-,N/A,,Clear,300,2013-08-02 22:15:00
5:35 PM,75.2,49.5,40,29.89,10.0,NW,5.8,-,N/A,,Clear,310,2013-08-02 22:35:00
5:55 PM,74.3,49.3,41,29.90,10.0,NW,6.9,-,N/A,,Clear,320,2013-08-02 22:55:00
6:15 PM,73.4,50.0,44,29.90,10.0,WNW,3.5,-,N/A,,Clear,300,2013-08-02 23:15:00
6:35 PM,72.9,50.9,46,29.91,10.0,NW,5.8,-,N/A,,Clear,310,2013-08-02 23:35:00
6:55 PM,72.7,50.9,46,29.92,10.0,NW,5.8,-,N/A,,Clear,310,2013-08-02 23:55:00
7:15 PM,72.5,51.6,48,29.93,10.0,NW,4.6,-,N/A,,Clear,310,2013-08-03 00:15:00
7:35 PM,71.6,51.3,49,29.93,10.0,NW,4.6,-,N/A,,Clear,320,2013-08-03 00:35:00
7:55 PM,70.5,49.5,47,29.94,10.0,NW,5.8,-,N/A,,Clear,320,2013-08-03 00:55:00
8:15 PM,69.3,48.4,47,29.94,10.0,NNW,4.6,-,N/A,,Clear,330,2013-08-03 01:15:00
8:35 PM,68.4,49.1,50,29.95,10.0,NW,3.5,-,N/A,,Clear,320,2013-08-03 01:35:00
8:55 PM,67.8,50.4,54,29.95,10.0,Calm,Calm,-,N/A,,Clear,0,2013-08-03 01:55:00
9:15 PM,67.5,50.9,55,29.96,10.0,NW,3.5,-,N/A,,Clear,320,2013-08-03 02:15:00
9:35 PM,68.0,49.6,52,29.96,10.0,NW,4.6,-,N/A,,Clear,320,2013-08-03 02:35:00
9:55 PM,67.1,49.6,53,29.97,10.0,NW,4.6,-,N/A,,Clear,310,2013-08-03 02:55:00
10:15 PM,66.7,50.2,55,29.97,10.0,NW,3.5,-,N/A,,Clear,310,2013-08-03 03:15:00
10:35 PM,65.5,51.8,61,29.97,10.0,NW,4.6,-,N/A,,Clear,320,2013-08-03 03:35:00
10:55 PM,65.7,49.8,57,29.97,10.0,NW,8.1,-,N/A,,Clear,320,2013-08-03 03:55:00
11:15 PM,64.2,50.2,60,29.97,10.0,NNW,6.9,-,N/A,,Clear,330,2013-08-03 04:15:00
11:35 PM,63.7,49.3,59,29.97,10.0,NNW,6.9,-,N/A,,Clear,330,2013-08-03 04:35:00
11:55 PM,63.7,48.4,57,29.98,10.0,NNW,9.2,-,N/A,,Clear,330,2013-08-03 04:55:00